Regional Weather Roundup
Issued by NWS

Home | Current Version | Previous Version | Graphics & Text | Print | Product List | Glossary On
Versions: 1 2 3 4 5 6 7 8 9 10 11 12 13 14 15 16 17 18 19 20 21 22 23 24 25 26 27
000
ASUS43 KDMX 231307
RWRIA

WEATHER ROUNDUP FOR IOWA
NATIONAL WEATHER SERVICE DES MOINES IA
800 AM CDT THU OCT 23 2014

NOTE: "FAIR" INDICATES FEW OR NO CLOUDS BELOW 12,000 FEET WITH NO
SIGNIFICANT WEATHER AND/OR OBSTRUCTIONS TO VISIBILITY.

* - THESE STATIONS ARE NOT NWS STATIONS...THUS NOT UNDER NWS
QUALITY CONTROL.  THEY ALSO DO NOT REPORT WEATHER SUCH
AS PRECIPITATION OR FOG.

IAZ001>003-012>014-020>022-031>034-043>046-231400-
   NORTHWEST IOWA

CITY           SKY/WX    TMP DP  RH WIND       PRES   REMARKS
CARROLL *      FOG       57  57 100 W6        30.02S VSB 3/4
CHEROKEE *     FOG       50  50 100 W3        30.03R VSB<1/4
DENISON *      CLOUDY    57  57 100 W6        30.02R
LE MARS *      FOG       50  50 100 CALM      30.04S VSB 0
ORANGE CITY *  FOG       50  48  93 CALM      30.03S VSB 0
SHELDON *      FOG       45  45 100 CALM      30.02R VSB 0
SIOUX CITY     FOG       47  46  97 CALM      30.04S VSB<1/4
SPENCER        FOG       50  49  96 NW6       30.03R VSB 1/4
STORM LAKE *   CLOUDY    54  54 100 W5        30.03S FOG
$$

IAZ055>058-069>071-079>083-090>094-231400-
   SOUTHWEST IOWA

CITY           SKY/WX    TMP DP  RH WIND       PRES   REMARKS
ATLANTIC *     CLOUDY    59  59 100 SW7       30.03S FOG
AUDUBON *      CLOUDY    59  54  82 SW5       30.03S HAZE
CLARINDA *     CLOUDY    59  59 100 S3        30.06R
COUNCIL BLFS * CLOUDY    59  59 100 SW6       30.03S FOG
CRESTON *      FOG       55  55 100 SW8       30.05S VSB 1/2
HARLAN  *      CLOUDY    59  59 100 SW7       30.06S FOG
LAMONI         LGT RAIN  51  48  89 S8        30.05S
RED OAK *      CLOUDY    61  61 100 SW8       30.04S FOG
SHENANDOAH *     N/A     61  61 100 SW9       30.05R FOG
$$

IAZ047>049-059>061-072>074-084-231400-
   CENTRAL IOWA

CITY           SKY/WX    TMP DP  RH WIND       PRES   REMARKS
AMES           CLOUDY    51  50  96 S5        30.03S
ANKENY *       LGT RAIN  54  52  94 SW5       30.03F
CHARITON *     MOCLDY    52  48  87 S6        30.05R
DES MOINES     LGT RAIN  54  51  90 S7        30.04S
GRINNELL*      CLOUDY    48  45  87 SE7       30.05F
KNOXVILLE *    CLOUDY    54  46  76 S8        30.04R
MARSHALLTOWN   CLOUDY    49  46  90 S8        30.04F
PELLA *        CLOUDY    52  46  82 S3        30.06S
PERRY *        CLOUDY    55  55 100 S3        30.02S FOG
$$

IAZ004>006-015-016-023>025-035-036-231400-
   NORTH CENTRAL IOWA

CITY           SKY/WX    TMP DP  RH WIND       PRES   REMARKS
ALGONA *       FOG       54  54 100 SW5       30.01R VSB 1/2
CLARION *      CLOUDY    52  52 100 S8        30.01S FOG
ESTHERVILLE    FOG       50  50 100 NW7       30.01R VSB 1/2
FORT DODGE *   CLOUDY    54  52  94 S5        30.02S
MASON CITY     CLOUDY    49  48  97 S10       30.03S FOG
FOREST CITY *  CLOUDY    50  50 100 S6        30.01S FOG
IOWA FALLS *   CLOUDY    48  46  93 S6        30.04S
$$

IAZ007>011-017>019-026>030-037>042-050>054-066-231400-
   NORTHEAST IOWA

CITY           SKY/WX    TMP DP  RH WIND       PRES   REMARKS
CEDAR RAPIDS   CLOUDY    48  42  80 S9        30.07F
CHARLES CITY * LGT RAIN  48  46  93 S7        30.04F
CLINTON *      MOCLDY    43  36  75 SE10      30.17F
DECORAH *      CLOUDY    46  45  93 CALM      30.05R
DUBUQUE        CLOUDY    44  38  79 S10       30.10F
MONTICELLO *   CLOUDY    46  39  76 VRB6      30.09F
OELWEIN *      CLOUDY    48  45  87 S13       30.06R
WATERLOO       RAIN      47  45  93 S9        30.04S FOG
$$

IAZ064-065-067-068-078-231400-
   EAST CENTRAL IOWA

CITY           SKY/WX    TMP DP  RH WIND       PRES   REMARKS
DAVENPORT      CLOUDY    45  37  73 S13       30.14F
IOWA CITY      CLOUDY    47  41  80 E6        30.10F
MT. PLEASANT * CLOUDY    48  41  76 S9        30.10F
MUSCATINE *    MOCLDY    46  41  81 SE8       30.11F
QUAD CITIES    CLOUDY    43  38  82 SE5       30.14F
$$

IAZ062-063-075>077-085>089-095>099-231400-
   SOUTHEAST IOWA

CITY           SKY/WX    TMP DP  RH WIND       PRES   REMARKS
BURLINGTON     CLOUDY    49  42  77 S12       30.12F
FAIRFIELD *    CLOUDY    50  43  76 S12       30.08F
FORT MADISON * CLEAR     48  45  87 S8        30.12F
KEOKUK *       CLEAR     50  43  76 S9        30.11F
OSKALOOSA *    CLOUDY    50  45  81 S7        30.06F
CENTERVILLE *  PTCLDY    52  46  82 S7        30.08S
OTTUMWA        CLOUDY    50  43  77 S7        30.06F
WASHINGTON *   CLOUDY    48  45  87 S7        30.10R
$$

ABBREVIATIONS USED IN REMARKS
   TC - TEMPERATURES IN CELSIUS
  WCI - WIND CHILL INDEX
   HX - HEAT INDEX
  VSB - VISIBILITY
$$




USA.gov is the U.S. government's official web portal to all federal, state and local government web resources and services.